カタログに戻る

STARLINK-4656

運用中通信VLEO
NORAD 53745·PAYLOAD·🇺🇸 United States

打ち上げ Sep 5, 2022 から Cape Canaveral Space Force Station

Loading…

次のパス (今後24時間)

TLE

最新Source: CelesTrak SupGP

元期: Sep 14, 2026, 21:20 UTC

1 53745C 22107AX  26257.88937500 -.00023471  00000+0 -69353-3 0  2572
2 53745  53.1565 119.8638 0001260  86.8755 130.9627 15.34398627    12

AllMySatでSTARLINK-4656をリアルタイム追跡

Download on the App Store